Regional Weather Roundup
Issued by NWS

Home | Current Version | Previous Version | Graphics & Text | Print | Product List | Glossary On
Versions: 1 2 3 4 5 6 7 8 9 10 11 12 13 14 15 16 17 18 19 20 21 22 23 24 25 26 27 28 29 30 31 32 33 34 35 36 37 38 39 40 41 42 43 44 45 46 47 48 49 50
000
ASUS43 KMPX 211810
RWRMN
WEATHER ROUNDUP FOR MINNESOTA
NATIONAL WEATHER SERVICE TWIN CITIES/CHANHASSEN MN
1200 PM CST TUE NOV 21 2017


NOTE: "FAIR" INDICATES FEW OR NO CLOUDS BELOW 12,000 FEET WITH NO
SIGNIFICANT WEATHER AND/OR OBSTRUCTIONS TO VISIBILITY. N/A MEANS
CURRENT SKY AND/OR WEATHER CONDITIONS ARE NOT AVAILABLE.

MNZ060>063-068>070-211900-
   Twin Cities Metro

CITY           SKY/WX    TMP DP  RH WIND       PRES   REMARKS
TWIN CITIES    PTSUNNY   26  13  57 NW20      30.09R WCI  12
6HR MIN TEMP:  23; 6HR MAX TEMP:  28; 6HR PCP: TRACE;

ST PAUL        PTSUNNY   27  11  51 NW21      30.10R WCI  13
CRYSTAL        MOSUNNY   26   8  46 NW21G32   30.08R WCI  12
BLAINE         MOSUNNY   27  30 100 NW15G28   30.07R WCI  15
LAKEVILLE      SUNNY     25  12  58 NW20      30.07R WCI  11
EDEN PRAIRIE   MOSUNNY   26  11  52 NW17G30   30.09R WCI  13
6HR MIN TEMP:  23; 6HR MAX TEMP:  28; 6HR PCP: TRACE;

SOUTH ST PAUL  MOSUNNY   28  11  49 NW16G22   30.08R WCI  15
LAKE ELMO      PTSUNNY   28  14  54 NW16G24   30.07R WCI  17
$$
MNZ001>005-007-008-013>017-022>024-027-028-211900-
   Northwest Minnesota

CITY           SKY/WX    TMP DP  RH WIND       PRES   REMARKS
BEMIDJI        FLURRIES  17   9  70 W17       30.13R WCI   1
HALLOCK        PTSUNNY   18  10  73 NW16      30.25R WCI   3
ROSEAU         FLURRIES  18  10  73 NW14      30.18R WCI   4
WARROAD        FLURRIES  16  10  79 W13       30.15S WCI   2
THIEF RVR FALL FLURRIES  15   9  76 NW20      30.24R WCI  -2
CROOKSTON      FLURRIES  18  10  73 N22G29    30.28R WCI   0
FOSSTON        FLURRIES  16   9  73 NW20G26   30.20R WCI  -1
DETROIT LAKES  LGT SNOW  18  12  79 NW17G25   30.21S WCI   2
MOORHEAD       PTSUNNY   19   9  63 NW21G29   30.29R WCI   3
PARK RAPIDS    SUNNY     20   7  57 NW16      30.12R WCI   6
MAHNOMEN       FLURRIES  16   9  72 NW17G24   30.22R WCI   0
$$
MNZ006-009>011-018-025>026-211900-
   North Central Minnesota

CITY           SKY/WX    TMP DP  RH WIND       PRES   REMARKS
BAUDETTE       LGT SNOW  15   9  76 W17G26    30.11R WCI  -1
FLAG ISLAND    LGT SNOW  16  10  79 NW20      30.10R WCI  -1
INTL FALLS     LGT SNOW  15   8  73 W14       30.07R WCI   0
6HR MIN TEMP:  13; 6HR MAX TEMP:  17; 6HR PCP: TRACE;

WASKISH        CLOUDY    16   9  73 NW14G22   30.13R WCI   1
BIG FORK       FLURRIES  18   9  68 NW9G20    30.08R WCI   6
LONGVILLE      SUNNY     19   9  63 W10G23    30.10R WCI   8
GRAND RAPIDS   SUNNY     19   8  62 NW17G24   30.07R WCI   4
CRANE LAKE     LGT SNOW  16   9  73 NW7       30.04R WCI   6
ORR            FLURRIES  16   7  67 NW17G23   30.01R WCI   0
COOK           FLURRIES  18   9  68 W17       30.02R WCI   2
WALKER         FAIR      18   8  63 NW17      30.11R WCI   3
$$
MNZ012-019>021-037-211900-
   Northeast Minnesota

CITY           SKY/WX    TMP DP  RH WIND       PRES   REMARKS
DULUTH         MOSUNNY   20   8  60 N20G37    29.98R WCI   4
6HR MIN TEMP:  17; 6HR MAX TEMP:  20; 6HR PCP: TRACE;

ELY            CLOUDY    16   7  67 NW10G24   29.96R WCI   3
HIBBING        MOSUNNY   18   8  65 NW18G25   30.03R WCI   2
EVELETH        MOSUNNY   18   5  57 NW15      30.01R WCI   3
DULUTH HARBOR  MOSUNNY   27  12  54 NW20G26   30.03R WCI  13
TWO HARBORS    SUNNY     27  10  50 W12G31    29.94R WCI  16
SILVER BAY     MOSUNNY   21   9  58 NW14G25   29.95R WCI   8
GRAND MARAIS     N/A     23   9  55 MISG      29.93R
G MARAIS ARPRT CLOUDY    14   3  62 NW21G30   29.82R HAZE    WCI  -4
$$
MNZ029>031-032-039>041-046>048-054>057-064-211900-
   West Central Minnesota

CITY           SKY/WX    TMP DP  RH WIND       PRES   REMARKS
FERGUS FALLS   MOSUNNY   18   9  68 N22G29    30.28R WCI   0
WHEATON        SUNNY     21   7  53 NW23G32   30.29R WCI   5
MORRIS         SUNNY     21   9  58 NW23G33   30.22R WCI   5
ALEXANDRIA     SUNNY     21   8  57 NW15G25   30.18R WCI   8
ELBOW LAKE     FAIR      18   8  65 W24G32    30.24R HAZE    WCI   0
WADENA         SUNNY     18   9  68 NW18      30.15R WCI   2
GLENWOOD       SUNNY     21   9  58 NW21G26   30.18R WCI   6
APPLETON       SUNNY     25   7  46 NW18G30   30.24R WCI  11
BENSON         SUNNY     23   9  54 N23G30    30.23R WCI   7
ORTONVILLE     SUNNY     23   7  50 MISG      30.26R
MADISON        SUNNY     27  10  50 NW22G32   30.25R WCI  12
WILLMAR        FAIR      25  10  54 NW26G32   30.19R WCI   9
$$
MNZ033>034-036-042>043-049>051-058-059-211900-
   Central Minnesota

CITY           SKY/WX    TMP DP  RH WIND       PRES   REMARKS
ST CLOUD       SUNNY     24  10  55 NW22G29   30.12R WCI   9
6HR MIN TEMP:  19; 6HR MAX TEMP:  24; 6HR PCP: TRACE;

SAUK CENTRE    FAIR      21   8  56 NW18      30.17R WCI   6
PAYNESVILLE    SUNNY     22  11  63 NW21G29   30.16R WCI   7
AITKIN         SUNNY     21   7  53 NW13G21   30.06R WCI   9
PINE RIVER     SUNNY     19   7  58 NW9G18    30.14R WCI   9
BRAINERD       SUNNY     23   7  50 NW16      30.11R WCI  10
STAPLES        SUNNY     21   7  53 W15       30.14R WCI   8
LONG PRAIRIE   FAIR      21   9  58 W20G25    30.15R WCI   6
LITTLE FALLS   SUNNY     23   0  36 NW8G20    30.14R WCI  14
LITCHFIELD     SUNNY     25  12  58 NW21      30.15R WCI  10
BUFFALO        SUNNY     24  10  54 W14G23    30.13R WCI  12
MAPLE LAKE     SUNNY     25  12  58 NW14G21   30.14R WCI  14
HUTCHINSON     SUNNY     26  13  60 NW24G31   30.15R WCI  10
$$
MNZ037-044-045-052-053-211900-
   East Central Minnesota

CITY           SKY/WX    TMP DP  RH WIND       PRES   REMARKS
PRINCETON      SUNNY     27  10  50 NW18G26   30.10R WCI  13
MORA           MOSUNNY   27  12  54 NW21G29   30.08R WCI  13
CAMBRIDGE      SUNNY     27  12  54 NW17G23   30.08R WCI  14
RUSH CITY      PTSUNNY   27  12  54 NW17G23   30.06R WCI  14
MOOSE LAKE     SUNNY     25   9  50 N13G22    30.03R WCI  13
HINCKLEY       FAIR      27  12  54 NW15G22   30.05R WCI  15
CLOQUET        SUNNY     21   7  53 NW17G24   30.01R WCI   7
MCGREGOR       SUNNY     25  10  54 NW17G25   30.06R WCI  11
$$
MNZ071>073-080-081-089-090-097-098-211900-
   Southwest Minnesota

CITY           SKY/WX    TMP DP  RH WIND       PRES   REMARKS
MONTEVIDEO     SUNNY     25   9  50 N26G32    30.22S WCI   9
GRANITE FALLS  SUNNY     26  11  54 NW24G30   30.24R WCI  11
CANBY          SUNNY     26  10  50 NW21G28   30.27R WCI  11
MARSHALL       SUNNY     23  10  57 NW23G33   30.22R WCI   7
REDWOOD FALLS  SUNNY     25   8  48 NW22G36   30.19R WCI  10
OLIVIA         SUNNY     27  12  54 NW22G32   30.18R WCI  12
PIPESTONE      SUNNY     21   9  58 N26G36    30.21R WCI   4
WINDOM           N/A     25   9  50 NW24G33   30.16R WCI   9
WORTHINGTON    SUNNY     24  12  60 NW28G33   30.19R WCI   7
JACKSON        SUNNY     27  12  54 NW30G37   30.15R WCI  10
SLAYTON        SUNNY     24  10  56 NW23G32   30.19R WCI   8
$$
MNZ065>067-074>077-082>085-091>093-211900-
   South Central Minnesota

CITY           SKY/WX    TMP DP  RH WIND       PRES   REMARKS
MANKATO        PTSUNNY   25  13  60 NW26G32   30.12R WCI   9
NEW ULM        SUNNY     25  10  54 NW28G35   30.15R WCI   8
ST JAMES       SUNNY     27  12  54 NW25G32   30.16R WCI  11
FAIRMONT       SUNNY     26  14  60 NW30G37   30.14R WCI  10
GLENCOE        PTSUNNY   26  14  60 NW22G30   30.13R WCI  11
FARIBAULT      SUNNY     27  12  54 NW17G23   30.08R WCI  14
OWATONNA       SUNNY     27  14  59 NW23G29   30.07R WCI  12
WASECA         MOSUNNY   28  14  54 NW23G30   30.10R WCI  14
ALBERT LEA     PTSUNNY   25  12  58 NW20G29   30.07R WCI  11
$$
MNZ078>079-086>088-094>096-211900-
   Southeast Minnesota

CITY           SKY/WX    TMP DP  RH WIND       PRES   REMARKS
ROCHESTER      MOSUNNY   26  13  57 NW26G32   30.01R WCI  10
6HR MIN TEMP:  25; 6HR MAX TEMP:  27; 6HR PCP: TRACE;

RED WING       MOSUNNY   28   9  43 NW14G20   30.05R WCI  17
STANTON        MOSUNNY   28  13  53 NW18G25   30.06R WCI  16
DODGE CENTER   MOSUNNY   27  12  54 NW17G25   30.03R WCI  14
WINONA           N/A     30  14  51 NW23G30   30.02R WCI  17
AUSTIN         PTSUNNY   27  14  59 NW22G30   30.04R WCI  12
PRESTON        MOSUNNY   27  13  55 NW20G31   30.00R WCI  13
$$
ABBREVIATIONS USED IN REMARKS
   TC - TEMPERATURES IN CELSIUS
  WCI - WIND CHILL INDEX
   HX - HEAT INDEX
  VSB - VISIBILITY
$$




USA.gov is the U.S. government's official web portal to all federal, state and local government web resources and services.